Regional Weather Roundup
Issued by NWS Pendleton, OR

Home | Current Version | Previous Version | Text Only | Print | Product List | Glossary On
Versions: 1 2 3 4 5 6 7 8 9 10 11 12 13 14 15 16 17 18 19 20 21 22 23 24 25 26 27 28 29 30 31 32 33 34 35 36 37 38 39 40 41 42 43 44 45 46 47 48 49 50
912
ASUS46 KPDT 010810
RWRPDT
PENDLETON REGIONAL WEATHER ROUNDUP
NATIONAL WEATHER SERVICE PENDLETON OREGON
100 AM PDT SUN MAY 1 2016

NOTE: FAIR INDICATES FEW OR NO CLOUDS BELOW 12,000 FEET WITH NO
SIGNIFICANT WEATHER AND/OR OBSTRUCTIONS TO VISIBILITY.

# INDICATES UNOFFICIAL STATION AND DATA

WAZ520-010910-
EAST SLOPES OF WASHINGTON CASCADES

CITY            SKY/WX      TMP DP  RH  WIND    PRES   REMARKS
#CLE ELUM 2NW   N/A         41  38  89  CALM    N/A
#CLE ELUM LAKE  N/A         47  40  76  S2      30.24R
#MANASTASH CYN  N/A         43  33  67  CALM    30.23F
#NELSON 3SW     N/A         41  37  86  CALM    30.45S
#NILE           N/A         43  37  79  CALM    29.54R
#RONALD 2NW     N/A         46  N/A N/A CALM    30.14S
#TROUT LAKE 1NE N/A         42  38  86  CALM    30.23R
#TROUT LAKE 1E  N/A         42  40  93  CALM    30.19F
$$

WAZ521-010910-
SIMCOE HIGHLANDS

CITY            SKY/WX      TMP DP  RH  WIND    PRES   REMARKS
#BICKLETON HS   N/A         47  36  65  N7      N/A
#CENTERVILLE 1SWN/A         42  36  79  CALM    30.18S
#GOLDENDALE 1NE N/A         43  27  53  N3      N/A
#GOODNOE HILLS  N/A         55  44  66  N3      30.10F
#LYLE 6NE       N/A         53  45  74  CALM    30.18S
$$

WAZ026-010910-
KITTITAS VALLEY

CITY            SKY/WX      TMP DP  RH  WIND    PRES   REMARKS
ELLENSBURG AP   CLEAR       48  37  65  N6      30.25S
YTC-OPS AREA    CLEAR       53  39  59  W5      30.27S
#ELLENSBURG 3NE N/A         47  39  74  CALM    30.24S
#ELLENSBURG     N/A         52  45  77  W2      N/A
#ELLENSBURG 1E  N/A         46  N/A N/A CALM    N/A
#KITTITAS 3S    N/A         41  38  89  CALM    30.22S
#THORP 6N       N/A         45  40  82  N3      30.27S
$$

WAZ027-010910-
YAKIMA VALLEY

CITY            SKY/WX      TMP DP  RH  WIND    PRES   REMARKS
YAKIMA AIRPORT  CLEAR       50  37  61  W6      30.24S
YAKIMA-VAGABOND CLEAR       47  39  74  S6      30.23R
#DONALD 2NE     N/A         58  23  26  NW1     29.08S
#GRANDVIEW      N/A         51  42  71  CALM    30.23R
#MABTON         N/A         48  41  77  S2      30.22R
#NACHES 2SW     N/A         53  42  66  W7      30.26S
#TERRACE HTS    N/A         50  41  71  CALM    30.18R
#WEST VALLEY    N/A         51  39  63  CALM    30.20S
#W YAKIMA       N/A         54  40  59  NW1     30.23R
#WILEY CITY 3W  N/A         50  34  54  CALM    30.21S
$$

WAZ028-010910-
LOWER COLUMBIA BASIN...WASHINGTON

CITY            SKY/WX      TMP DP  RH  WIND    PRES   REMARKS
PASCO           CLEAR       48  44  86  CALM    30.22S
PROSSER AWOS    N/A         43  41  93  W5      30.25S
RICHLAND AWOS   CLEAR       50  45  83  W3      30.22S
#BENTON CITY    N/A         51  44  77  CALM    30.12R
#CONNELL 5N     N/A         47  42  83  NE2     30.21S
#ELTOPIA 6NW    N/A         52  45  77  CALM    29.18S
#KAHLOTUS       N/A         50  44  80  S2      30.20F
#KENNEWICK 3S   N/A         52  44  74  CALM    30.21R
#PATERSON       N/A         55  46  72  E1      30.18S
#SAGEMOOR 2W    N/A         50  45  83  CALM    30.05S
#WEST PASCO     N/A         53  43  69  CALM    30.29S
$$

WAZ029-010910-
FOOTHILLS OF THE BLUES...WASHINGTON

CITY            SKY/WX      TMP DP  RH  WIND    PRES   REMARKS
WALLA WALLA AP  CLEAR       48  42  80  SE5     30.20S
#CLYDE 6NW      N/A         44  41  89  CALM    30.21R
#LOWDEN 2SE     N/A         46  44  93  CALM    30.17S
#PLEASANT VIEW 1N/A         50  44  80  CALM    30.24S
#PRESCOTT       N/A         44  42  93  CALM    30.19S
#WHITMAN COLLEGEN/A         51  45  80  E3      30.24F
#WAITSBURG 5S   N/A         49  42  77  NE7     30.29S
#WALLA WALLA U  N/A         51  46  83  CALM    30.19S
#WHITMAN MISSIONN/A         46  43  89  CALM    30.21S
$$

WAZ030-010910-
BLUE MOUNTAINS...WASHINGTON

CITY            SKY/WX      TMP DP  RH  WIND    PRES   REMARKS
#DIXIE 5SE      N/A         52  39  61  N7      30.14S
$$

ORZ009-041-WAZ024-010910-
COLUMBIA RIVER GORGE

CITY            SKY/WX      TMP DP  RH  WIND    PRES   REMARKS
HOOD RIVER AP   CLEAR       50  45  83  CALM    30.23R
THE DALLES AP   CLEAR       54  45  71  NW5     30.21S
#ARLINGTON AIRPON/A         58  44  60  CALM    30.20F
#CELILO DOT     N/A         56  42  59  CALM    N/A
#MOSIER 1S      N/A         52  37  56  CALM    30.21S
#MURDOCK        N/A         56  48  74  NW9     30.18R

$$

ORZ510-010910-
NORTH CENTRAL OREGON

CITY            SKY/WX      TMP DP  RH  WIND    PRES   REMARKS
#ANTELOPE       N/A         44  38  79  CALM    30.09F
#COW CYN RST AREN/A         47  39  74  E1      N/A
#DUFUR 9E       N/A         53  43  69  E6      30.25S
#GRASS VALLEY   N/A         39  36  89  S1      N/A
#GRASS VALLEY 1SN/A         48  42  80  CALM    30.15F
#KENT DOT       N/A         47  36  65  N6      N/A
#MAUPIN SCHOOL  N/A         53  39  59  CALM    30.24S
#MORO SCHOOL    N/A         44  42  93  CALM    30.22S
#SHANIKO 5WSW   N/A         46  35  65  N12     N/A    WCI 40
#TYGH VALLEY 2NEN/A         50  40  68  CALM    30.19S
#WAPANITIA AIRPON/A         44  38  79  CALM    30.22S
#WASCO DOT      N/A         42  38  86  W1      N/A
#WASCO 5NE      N/A         38  35  89  CALM    30.20S
$$

ORZ511-010910-
CENTRAL OREGON

CITY            SKY/WX      TMP DP  RH  WIND    PRES   REMARKS
BEND AIRPORT    CLEAR       45  32  60  W8      30.19F
MADRAS AIRPORT  CLEAR       43  34  70  N3      30.23S
PRINEVILLE AP   CLEAR       50  36  58  N7      30.19F
REDMOND AIRPORT CLEAR       44  31  60  CALM    30.19F
#ASHWOOD SCHOOL N/A         44  36  73  CALM    30.16S
#BEND 1SW       N/A         36  31  82  CALM    N/A
#BEND-AWBREY    N/A         47  34  60  N2      30.19F
#BEND-KIM LN    N/A         41  34  76  CALM    30.17F
#CULVER         N/A         46  34  63  CALM    30.17F
#LAKE BILLY CHINN/A         48  N/A N/A CALM    30.24F
#POWELL BUTTE   N/A         42  31  65  CALM    30.05F
#PRINEVILLE 3N  N/A         45  36  70  SW3     30.17F
#WARM SPRINGS   N/A         52  38  59  CALM    30.16S

$$


ORZ509-010910-
EAST SLOPES OF OREGON CASCADES

CITY            SKY/WX      TMP DP  RH  WIND    PRES   REMARKS
SISTERS AWOS    N/A         36  30  79  CALM    30.17F
#BLUE BOX PASS  N/A         42  N/A N/A E1      N/A
#BLACK BUTTE RNCN/A         38  33  82  CALM    30.20F
#CAMP SHERMAN   N/A         34  28  78  CALM    30.26F
#LA PINE 4NW    N/A         32  26  78  CALM    30.24F
#LAVA BUTTE DOT N/A         37  27  67  CALM    N/A
#SISTERS AIRPOR N/A         36  34  92  CALM    30.17S
#SISTERS ODOT   N/A         37  N/A N/A CALM    N/A
#SISTERS 3N     N/A         34  23  64  CALM    30.17F
#SUNRIVER       N/A         38  32  79  CALM    30.22F
#WANOGA BUTTE D N/A         40  26  57  NE10    N/A

$$

ORZ044-010910-
LOWER COLUMBIA BASIN...OREGON

CITY            SKY/WX      TMP DP  RH  WIND    PRES   REMARKS
HERMISTON       CLEAR       46  41  83  CALM    30.20R
#ECHO 8SW       N/A         45  40  82  SW1     30.21R
#I-84 EX 198 DOTN/A         49  43  80  NE8     N/A
#UMATILLA SCHOOLN/A         47  47  100 CALM    30.23R
#UMATILLA       N/A         51  42  71  CALM    30.13R
$$

ORZ507-010910-
NORTHERN FOOTHILLS OF THE BLUES

CITY            SKY/WX      TMP DP  RH  WIND    PRES   REMARKS
PENDLETON AIRPT CLEAR       43  39  86  E6      30.20S
#ADAMS 3WNW     N/A         40  38  92  CALM    30.21R
#ATHENA         N/A         43  40  89  CALM    30.22S
#CAYUSE         N/A         47  42  83  E2      30.19R
#HELIX SCHOOL   N/A         47  39  74  SE3     30.19S
#HELIX 3N       N/A         45  40  82  N5      30.16S
#HELIX 6SW      N/A         47  43  86  E7      30.19R
#HOLDMAN 5SE    N/A         43  40  89  CALM    30.18S
#HOLDMAN 6E     N/A         49  42  77  S5      30.00S
#M-F FERNDALE   N/A         47  39  74  CALM    30.19S
#M-F GROVE ELEM N/A         47  39  74  CALM    30.17F
#M-FREEWATER 5SEN/A         49  41  74  N3      30.19S
#PENDLETON DNTN N/A         46  35  65  CALM    30.22S
#PDT AQUATIC CTRN/A         46  32  58  CALM    30.22S
#PENDLETON 7NW  N/A         44  38  79  E3      27.45S
#PILOT ROCK     N/A         45  37  73  CALM    30.21S
#TUTUILLA       N/A         40  37  89  CALM    30.20S
#UMAPINE 2E     N/A         43  40  89  CALM    30.17S

$$

ORZ508-010910-
SOUTHERN FOOTHILLS OF THE BLUES

CITY            SKY/WX      TMP DP  RH  WIND    PRES   REMARKS
#AJAX           N/A         50  36  58  N2      27.94F
#CONDON SCHOOL  N/A         48  41  77  N5      30.16S
#CONDON 5W      N/A         48  39  71  NE10    30.19S
#FOSSIL SCHOOL  N/A         42  37  82  CALM    30.15S
#HEPPNER EOC    N/A         46  40  79  E7      30.13S
#HEPPNER 4NE    N/A         49  41  74  SE3     30.19F
#LEXINGTON 2SE  N/A         45  39  79  CALM    30.19R
#RUGGS 2SW      N/A         44  38  79  S9      30.22S

$$

ORZ502-503-010910-
BLUE MOUNTAINS

CITY            SKY/WX      TMP DP  RH  WIND    PRES   REMARKS
MEACHAM         CLEAR       32  30  92  CALM    30.22S
#BATTLE MTN DOT N/A         41  41  100 CALM    N/A
#GREENHORN 9SW  N/A         38  34  85  CALM    26.36S
#HARDMAN 10S    N/A         61  34  36  N5      30.22S
#HEPPNER 15SE   N/A         39  38  96  CALM    30.13F
#LADD CYN SMT   N/A         46  36  68  NW7     N/A
#LADD CREEK ODOTN/A         42  37  82  W1      N/A
#N POWDER DOT   N/A         47  40  76  N14     N/A    WCI 41
#PIKES PEAK     N/A         50  37  61  N2      27.99S
#TOLLGATE       N/A         39  35  85  NE5     30.05F
#UKIAH          N/A         37  35  92  CALM    30.13F
#WESTON 4E      N/A         46  39  76  CALM    30.18F
$$

ORZ505-010910-
JOHN DAY BASIN

CITY            SKY/WX      TMP DP  RH  WIND    PRES   REMARKS
JOHN DAY        CLEAR       45  37  73  CALM    30.19S
#DAYVILLE SCHOOLN/A         54  37  52  CALM    30.14R
#MITCHELL 8NW   N/A         47  37  68  N1      30.38F
#MONUMENT HS    N/A         45  37  73  N1      30.17F
#MT. VERNON 5SE N/A         45  37  73  S1      30.14S
#WINLOCK        N/A         49  38  66  W3      30.15F
$$

ORZ506-010910-
OCHOCO AND JOHN DAY HIGHLANDS

CITY            SKY/WX      TMP DP  RH  WIND    PRES   REMARKS
#HORSE RIDGE DO N/A         33  24  69  NW2     N/A
#KEYES SMT DOT  N/A         45  36  70  N2      N/A
#PAULINA SCHOOL N/A         59  32  36  N3      29.37F
#PINE MTN OBS   N/A         37  29  72  NW6     N/A
#SENECA         N/A         39  N/A N/A CALM    N/A
#SENECA 9NW     N/A         41  35  79  CALM    30.12F
$$

ORZ049-010910-
GRANDE RONDE VALLEY

CITY            SKY/WX      TMP DP  RH  WIND    PRES   REMARKS
LA GRANDE       MOCLEAR     50  36  58  N12     30.18F
#COVE           N/A         46  41  83  CALM    30.20R
#COVE SCHOOL    N/A         46  40  79  CALM    30.19R
#ELGIN 3N       N/A         39  35  85  CALM    30.18S
#ELGIN 1E       N/A         44  38  79  N5      N/A
#ISLAND CITY 4N N/A         56  44  64  CALM    30.21F
#LADD CYN DOT   N/A         50  41  71  NW6     N/A
#UNION 1S       N/A         47  40  76  E2      30.10R
$$

ORZ050-010910-
WALLOWA COUNTY

CITY            SKY/WX      TMP DP  RH  WIND    PRES   REMARKS
JOSEPH AIRPORT  CLOUDY      45  41  86  W6      30.24F
#IMNAHA SCHOOL  N/A         46  44  93  SW1     30.22S
#IMNAHA 10S     N/A         40  38  92  CALM    30.20F
#JOSEPH 3N      N/A         43  38  82  CALM    30.23S
#JOSEPH 3W      N/A         42  42  100 CALM    30.04S
#PROMISE 1S     N/A         38  36  92  CALM    30.35S



$$



USA.gov is the U.S. government's official web portal to all federal, state and local government web resources and services.